Ogden, UT

1:17 PM MST on January 24, 2017 (GMT -0700)
Ogden-Hinckley

Weather History for KOGD - October, 2013

Change the Weather History Date:

Wednesday, October 16, 2013

  Actual Average Record
Temperature  
Mean Temperature 42 °F -  
Max Temperature 53 °F 65 °F 81 °F (1991)
Min Temperature 32 °F 36 °F 27 °F (1984)
Degree Days  
Heating Degree Days 22    
Moisture  
Dew Point 26 °F    
Average Humidity 52    
Maximum Humidity 69    
Minimum Humidity 33    
Precipitation  
Precipitation 0.00 in - - ()
Sea Level Pressure  
Sea Level Pressure 30.18 in    
Wind  
Wind Speed 6 mph (South)    
Max Wind Speed 10 mph    
Max Gust Speed -    
Visibility 10 miles    
Events      
Averages and records for this station are not official NWS values.
T = Trace of Precipitation, MM = Missing Value Source: NWS Daily Summary

Daily Weather History Graph

Daily Weather History Graph

Search for Another Location

Airport or City:

Trip Planner

Search our weather history database for the weather conditions in past years. The results will help you decide how hot, cold, wet, or windy it might be!

Date:

Astronomy

Oct. 16, 2013 Rise Set
Actual Time 7:41 AM MDT 6:45 PM MDT
Civil Twilight 7:13 AM MDT 7:13 PM MDT
Nautical Twilight 6:41 AM MDT 7:44 PM MDT
Astronomical Twilight 6:09 AM MDT 8:16 PM MDT
Moon 5:27 PM MDT (10/16) 5:11 AM MDT (10/16)
Length of Visible Light 11h 59m
Length of Day
11h 04m
Waxing Gibbous, 94% of the Moon is Illuminated
Oct 16
Waxing Gibbous
Oct 18
Full
Oct 26
Last Quarter
Nov 3
New
Nov 9
First Quarter

Hourly Weather History & Observations

Time (MDT) Temp. Windchill Dew Point Humidity Pressure Visibility Wind Dir Wind Speed Gust Speed Precip Events Conditions
12:53 AM 39.9 °F 37.8 °F 24.1 °F 53% 30.19 in 10.0 mi ENE 3.5 mph - N/A   Clear
1:53 AM 37.0 °F 31.6 °F 25.0 °F 62% 30.21 in 10.0 mi South 6.9 mph - N/A   Clear
2:53 AM 36.0 °F 29.0 °F 24.1 °F 62% 30.20 in 10.0 mi South 9.2 mph - N/A   Clear
3:53 AM 35.1 °F 29.3 °F 24.1 °F 64% 30.18 in 10.0 mi South 6.9 mph - N/A   Clear
4:53 AM 34.0 °F 28.0 °F 24.1 °F 67% 30.19 in 10.0 mi South 6.9 mph - N/A   Clear
5:53 AM 33.1 °F 27.7 °F 23.0 °F 66% 30.20 in 10.0 mi South 5.8 mph - N/A   Clear
6:53 AM 33.1 °F 26.1 °F 23.0 °F 66% 30.21 in 10.0 mi SSE 8.1 mph - N/A   Clear
7:53 AM 32.0 °F 23.6 °F 23.0 °F 69% 30.22 in 10.0 mi South 10.4 mph - N/A   Clear
8:53 AM 36.0 °F 29.0 °F 23.0 °F 59% 30.24 in 10.0 mi SSE 9.2 mph - N/A   Clear
9:53 AM 41.0 °F 35.2 °F 25.0 °F 53% 30.25 in 10.0 mi SSE 9.2 mph - N/A   Clear
10:53 AM 45.0 °F 42.6 °F 26.1 °F 48% 30.24 in 10.0 mi South 4.6 mph - N/A   Clear
11:53 AM 48.9 °F - 27.0 °F 43% 30.22 in 10.0 mi South 8.1 mph - N/A   Clear
12:53 PM 50.0 °F - 27.0 °F 41% 30.20 in 10.0 mi Variable 4.6 mph - N/A   Clear
1:53 PM 51.1 °F - 27.0 °F 39% 30.19 in 10.0 mi SW 10.4 mph - N/A   Clear
2:53 PM 52.0 °F - 28.0 °F 40% 30.17 in 10.0 mi West 5.8 mph - N/A   Clear
3:53 PM 53.1 °F - 28.0 °F 38% 30.16 in 10.0 mi West 8.1 mph - N/A   Clear
4:53 PM 52.0 °F - 26.1 °F 37% 30.16 in 10.0 mi WSW 6.9 mph - N/A   Clear
5:53 PM 51.1 °F - 23.0 °F 33% 30.15 in 10.0 mi SW 4.6 mph - N/A   Clear
6:53 PM 48.9 °F - 26.1 °F 41% 30.14 in 10.0 mi Calm Calm - N/A   Clear
7:53 PM 48.0 °F - 28.0 °F 46% 30.15 in 10.0 mi NE 5.8 mph - N/A   Clear
8:53 PM 45.0 °F 42.6 °F 28.0 °F 52% 30.14 in 10.0 mi South 4.6 mph - N/A   Clear
9:53 PM 42.1 °F 38.4 °F 28.0 °F 58% 30.14 in 10.0 mi South 5.8 mph - N/A   Clear
10:53 PM 42.1 °F 37.7 °F 26.1 °F 53% 30.13 in 10.0 mi South 6.9 mph - N/A   Clear
11:53 PM 41.0 °F 35.8 °F 26.1 °F 55% 30.12 in 10.0 mi South 8.1 mph - N/A   Clear